Regional Weather Roundup
Issued by NWS Sterling, VA

Home | Current Version | Previous Version | Graphics & Text | Print | Product List | Glossary On
Versions: 1 2 3 4 5 6 7 8 9 10 11 12 13 14 15 16 17 18 19 20 21 22 23 24 25 26 27 28 29 30 31 32 33 34 35 36 37 38 39 40 41 42 43 44 45 46 47 48 49 50
000
ASUS41 KLWX 111510
RWRLWX

REGIONAL WEATHER ROUNDUP
NATIONAL WEATHER SERVICE BALTIMORE MD/WASHINGTON DC
1000 AM EST THU FEB 11 2016

Note: "FAIR" indicates few or no clouds below 12,000 feet
with no significant weather and/or obstructions to visibility.
 TC=TEMPERATURE CELSIUS

 * =Non NWS site. Station does not report precipitation (e.g. rain,
    snow, etc.), thunder, or fog.

DCZ001-MDZ009-015-VAZ040>042-051-053>054-111600-
WASHINGTON METRO

CITY           SKY/WX    TMP DP  RH WIND       PRES   REMARKS
WASHINGTON NAT FAIR      24   1  36 NW18G25   30.14S WCI  10
DULLES         PTSUNNY   23   1  38 W18G30    30.13R WCI   9
ANDREWS AFB    PTSUNNY   23   0  37 NW22G29   30.11R WCI   8
FT BELVOIR     PTSUNNY   24   1  36 NW10G24   30.15R WCI  14
QUANTICO       FAIR      27   3  35 NW17G28   30.17R WCI  14
COLLEGE PARK*  PTSUNNY   27   1  33 W21G30    30.13R WCI  13
LEESBURG*      PTSUNNY   27  10  50 W24G33    30.13S WCI  12
MANASSAS*      PTSUNNY   23   5  46 NW15      30.14R WCI  10
GAITHERSBURG*  CLOUDY    19   3  49 W12G26    30.14R WCI   7

$$

MDZ006>007-011-014-111600-
BALTIMORE METRO

CITY           SKY/WX    TMP DP  RH WIND       PRES   REMARKS
BWI AIRPORT    MOSUNNY   24   3  40 W18G32    30.10R WCI  10
MD SCIENCE CTR   N/A     24   2  38 MISG      30.07F
MARTIN STATE   MOSUNNY   25   7  46 W17G25    30.11R WCI  11
ANNAPOLIS      PTSUNNY   24   5  44 W20G28    30.11S WCI  10
FORT MEADE*    MOSUNNY   25   3  39 W21G33    30.13S WCI  10

$$

MDZ012-015-019>023-111600-
MARYLAND EASTERN SHORE

CITY           SKY/WX    TMP DP  RH WIND       PRES   REMARKS
OCEAN CITY     MOSUNNY   27   4  37 NW16G32   30.09R WCI  15
SALISBURY      PTSUNNY   27   3  35 W13G32    30.10R WCI  16
BAY BRIDGE AP*   N/A     27   3  36 NW22G30   30.11R WCI  12
CAMBRIDGE*     SUNNY     25   3  39 W15G29    30.11S WCI  12
EASTON*        MOSUNNY   27   5  39 NW18G28   30.13R WCI  13

$$

MDZ017>025-111600-
SOUTHERN MARYLAND

CITY           SKY/WX    TMP DP  RH WIND       PRES   REMARKS
PATUXENT RIVER PTSUNNY   25   1  35 NW18      30.14R WCI  11
ST INIGOES     PTSUNNY   25   4  40 W21G29    30.14R WCI  11
LEONARDTOWN*   MOSUNNY   27   1  33 MISG        N/A

$$

MDZ003>005-111600-
NORTH CENTRAL MARYLAND

CITY           SKY/WX    TMP DP  RH WIND       PRES   REMARKS
FREDERICK*     PTSUNNY   21   9  58 W16G25    30.15R WCI   7
HAGERSTOWN APT CLOUDY    19   6  57 W21G32    30.07R WCI   3
WESTMINSTER*   MOSUNNY   18  10  73 W12       30.04R WCI   5

$$

MDZ501>502-111600-
WESTERN MARYLAND

CITY           SKY/WX    TMP DP  RH WIND       PRES   REMARKS
OAKLAND*       CLOUDY     5   0  78 W15G26    29.93R HAZE    WCI -13
CUMBERLAND*    MOSUNNY   19   3  49 W16G25    30.17R WCI   5

$$

VAZ025>031-111600-
SHENANDOAH VALLEY

CITY           SKY/WX    TMP DP  RH WIND       PRES   REMARKS
WINCHESTER*    CLOUDY    21   1  42 W17G28    30.11R WCI   7
FRONT ROYAL*   PTSUNNY   23   1  39 W13G18    30.11R WCI  11
LURAY*         FAIR      21   1  42 W7        30.10S
NEW MARKET*    FAIR      20  -1  39 W12G22    30.10R WCI   8
STAUNTON*      FAIR      25   0  34 W14       30.11S WCI  13
WAYNESBORO*    FAIR      20  -4  35 W9G17     30.08R WCI   9

$$

WVZ021-048>050-054>055-111600-
EASTERN WEST VIRGINIA PANHANDLE

CITY           SKY/WX    TMP DP  RH WIND       PRES   REMARKS
MARTINSBURG    CLOUDY    19   2  47 W17G31    30.11R WCI   4
PETERSBURG*    FAIR      19   0  43 W18G32    30.14S WCI   4

$$

VAZ036>039-050-111600-
CENTRAL FOOTHILLS

CITY           SKY/WX    TMP DP  RH WIND       PRES   REMARKS
CHARLOTTESVILL FAIR      24  -1  33 VRB7      30.12S
CULPEPER*      FAIR      24   2  38 NW12      30.15R WCI  13
ORANGE*        FAIR      27   1  33 SW9       30.16R WCI  17
GORDONSVILLE*  FAIR      24  -1  34 NW12G17   30.14S WCI  13
WARRENTON*     PTSUNNY   27   8  44 NW12G18   30.13R WCI  17

$$

VAZ055>057-111600-
NORTH AND CENTRAL PIEDMONT

CITY           SKY/WX    TMP DP  RH WIND       PRES   REMARKS
FREDERICKSBRG* FAIR      25   3  38 W10G22    30.16R WCI  15
STAFFORD*      CLOUDY    25   0  33 W9        30.20R WCI  15

$$

NCZ024-NYZ072-PAZ021-071-VAZ022-071-111600-
OTHER REGIONAL OBSERVATIONS

CITY           SKY/WX    TMP DP  RH WIND       PRES   REMARKS
NEW YORK CITY  MOSUNNY   24  -2  32 W15G26    29.91S WCI  11
PHILADELPHIA   PTSUNNY   25   5  42 W28       30.03R WCI   9
PITTSBURGH     MOSUNNY   14   2  58 W16G25    30.10R WCI  -2
ROANOKE        FAIR      22   2  42 NW18G26   30.16R WCI   7
RICHMOND       FAIR      25   2  37 W10       30.17R WCI  15
RALEIGH        SUNNY     29   6  38 NW12G18   30.21R WCI  19

$$

ANZ530>537-111600-
MARINE OBSERVATIONS

STATION/POSITION TIME  TEMP    WIND        PRES
                       AIR SEA DIR/SP/G
                 (UTC) (F)     (DEG/KT/KT) (MB)
THOMAS PT LIGHT  NOT AVBL
BALT KEY BRIDGE  1400   22     260/ 21/ 29 1018.7R
COVE POINT       1400   23     320/ 15/ 23 1020.8R
LEWISETTA        1400   24 38  310/ 14/ 17 1020.5R
SOLOMONS ISLAND  1400   25 40  270/ 14/ 25   N/A
PINEY POINT      1400          320/ 27/ 29   N/A

$$




USA.gov is the U.S. government's official web portal to all federal, state and local government web resources and services.